Location: Unnamed
(38.6322°N, 90.2717°W)
Time: 23:31:48
(UTC-06:00)

ISS - Pass Details

Date: 05 June 2020
Orbit: 418 x 420 km, 51.6° (Epoch: 04 December)

Event Time Altitude Azimuth Distance (km) Brightness Sun altitude
Rises 20:47:28 0° 301° (WNW) 2,370 3.1 -4.9°
Reaches altitude 10° 20:49:40 10° 293° (WNW) 1,500 0.7 -5.3°
Maximum altitude 20:52:46 35° 226° (SW) 695 -2.5 -5.8°
Drops below altitude 10° 20:55:51 10° 158° (SSE) 1,487 -1.5 -6.2°
Enters shadow 20:56:43 - 154° (SSE) 1,825 -1.1 -6.4°
